Weather Service Report


265 
ASUS44 KOUN 250110
RWROK 

WEATHER ROUNDUP FOR OKLAHOMA
NATIONAL WEATHER SERVICE NORMAN OK
800 PM CDT MON APR 24 2017

NOTE: "FAIR" INDICATES FEW OR NO CLOUDS BELOW 12,000 FEET WITH NO
      SIGNIFICANT WEATHER AND/OR OBSTRUCTIONS TO VISIBILITY.

OKZ001>007-009>012-014-015-017-250200-
NORTHWEST OKLAHOMA AND THE PANHANDLE
  
CITY           SKY/WX    TMP DP  RH WIND       PRES   REMARKS
GAGE           CLOUDY    74  49  41 S24G33    29.46F                  
GUYMON         CLOUDY    77  35  21 N3        29.41F                  
ENID/WOODRING  MOCLDY    70  54  56 S14       29.53F                  
$$

OKZ016-021>023-033>039-044-045-250200-
SOUTHWEST OKLAHOMA
  
CITY           SKY/WX    TMP DP  RH WIND       PRES   REMARKS
LAWTON/REGL    CLOUDY    73  53  49 SE12      29.57F                  
LAWTON/FT SILL CLOUDY    72  55  54 S16       29.56F                  
FREDERICK      CLEAR     76  53  44 SE17      29.51F                  
CLINTON        CLOUDY    73  50  44 S21G30    29.53F                  
HOBART         CLOUDY    73  51  46 S16       29.54F                  
ALTUS AFB      CLOUDY    76  49  39 SE16      29.52F                  
$$

OKZ018>020-024>031-250200-
CENTRAL OKLAHOMA
  
CITY           SKY/WX    TMP DP  RH WIND       PRES   REMARKS
OKLAHOMA CITY  MOCLDY    68  50  52 S14       29.58F                  
OKC/WILEY POST PTCLDY    70  50  49 S17       29.57F                  
OKC/TINKER AFB CLOUDY    69  47  46 S16       29.58F                  
STILLWATER     PTCLDY    70  47  43 S12       29.59S                  
GUTHRIE        MOCLDY    70  49  47 S9        29.58S                  
$$

OKZ008-013-054>072-250200-
NORTHEAST OKLAHOMA
  
CITY           SKY/WX    TMP DP  RH WIND       PRES   REMARKS
TULSA          CLOUDY    71  45  39 S12       29.59S                  
TULSA/JONES    CLOUDY    71  46  40 S10       29.61S                  
PONCA CITY     CLOUDY    71  47  42 S12G20    29.58S                  
BARTLESVILLE   CLOUDY    67  48  50 CALM      29.61S                  
MUSKOGEE       CLOUDY    67  46  47 S9        29.64F                  
$$

OKZ032-040>043-046>053-073>077-250200-
SOUTH CENTRAL/SOUTHEAST OKLAHOMA
  
CITY           SKY/WX    TMP DP  RH WIND       PRES   REMARKS
ARDMORE/DWNTWN CLEAR     70  45  40 SW8       29.64S                  
MCALESTER      PTCLDY    70  47  43 S9        29.65F                  
$$

  

Return to Home page


Western Regional Climate Center, wrcc@dri.edu